Regional Weather Roundup
Issued by NWS Sioux Falls, SD

Home | Current Version | Previous Version | Text Only | Print | Product List | Glossary Off
Versions: 1 2 3 4 5 6 7 8 9 10 11 12 13 14 15 16 17 18 19 20 21 22 23 24 25 26 27 28 29 30 31 32 33 34 35 36 37 38 39 40 41 42 43 44 45 46 47 48 49 50

000
ASUS43 KFSD 230410
RWRFSD

WEATHER ROUNDUP FOR SE SOUTH DAKOTA/SW MINNESOTA/NW IOWA
NATIONAL WEATHER SERVICE SIOUX FALLS SD
1100 PM CDT TUE APR 22 2014

NOTE: "FAIR" INDICATES FEW OR NO CLOUDS BELOW 12,000 FEET WITH NO
SIGNIFICANT WEATHER AND OR OBSTRUCTIONS TO VISIBILITY.


SDZ038>040-050-052>070-230500-
SOUTHEAST SOUTH DAKOTA

CITY           SKY/WX    TMP DP  RH WIND       PRES   REMARKS
CHAMBERLAIN      N/A     60  32  34 SE29G39   29.78F
HURON          CLOUDY    58  32  37 SE15G26   29.86F
MADISON        FAIR      55  32  41 SE20      29.93F
MITCHELL       CLOUDY    59  34  39 SE22G28   29.87F
SIOUX FALLS    CLOUDY    58  34  40 SE16      29.95S
WINNER         FAIR      64  32  30 SE24G33   29.76S
YANKTON        PTCLDY    57  34  41 E13       29.93S
$$

MNZ071-072-080-081-089-090-097-098-230500-
SOUTHWEST MINNESOTA

CITY           SKY/WX    TMP DP  RH WIND       PRES   REMARKS
FAIRMONT       CLOUDY    52  32  46 E7        30.07R
JACKSON        CLOUDY    54  32  43 E10       30.04S
LUVERNE        CLOUDY    57  34  41 SE13      29.99S
MARSHALL       CLOUDY    54  34  47 SE15      30.01S
MONTEVIDEO     CLOUDY    52  36  54 S10       30.03S
PIPESTONE      CLOUDY    55  32  41 SE12      29.98F
REDWOOD FALLS  CLOUDY    54  30  40 E10       30.03R
TRACY          CLOUDY    55  33  43 SE9       30.02S
WINDOM         CLOUDY    54  32  43 E12       30.04R
WORTHINGTON    CLOUDY    54  30  40 SE12      30.04S
$$

IAZ001>003-012>014-020>022-031-032-NEZ013-014-SDZ071-230500-
NORTHWEST IOWA

CITY           SKY/WX    TMP DP  RH WIND       PRES   REMARKS
CHEROKEE       CLOUDY    55  35  47 E6        30.01S
DENISON        MOCLDY    54  36  50 SE6       30.00S
ESTHERVILLE    LGT RAIN  50  40  68 E12       30.04R
LE MARS        CLOUDY    57  37  47 SE12      29.98S
ORANGE CITY    CLOUDY    57  36  44 E7        29.99S
SHELDON        CLOUDY    55  36  47 SE12      29.99S
SIOUX CITY     CLOUDY    60  35  39 SE14      29.97S
SPENCER        CLOUDY    56  37  49 SE12      30.02S
STORM LAKE     CLOUDY    52  36  54 SE10      30.02S
$$

ABBREVIATIONS USED IN REMARKS
   TC - TEMPERATURE IN CELSIUS
  WCI - WIND CHILL INDEX
   HX - HEAT INDEX
  VSB - VISIBILITY




USA.gov is the U.S. government's official web portal to all federal, state and local government web resources and services.